Location: Cabeza de los Veneras
(40.2000°N, 5.2000°W)
Time: 04:42:29
(UTC+00:00)

BlueWalker 3 - Pass Details

Date: 24 June 2024
Orbit: 480 x 491 km, 53.2° (Epoch: 21 July)

Event Time Altitude Azimuth Distance (km) Brightness Sun altitude
Rises 00:32:42 0° 316° (NW) 2,540 6.1 -26.4°
Reaches altitude 10° 00:35:24 10° 336° (NNW) 1,658 5.3 -26.3°
Maximum altitude 00:38:03 18° 21° (NNE) 1,237 4.7 -26.3°
Drops below altitude 10° 00:40:41 10° 66° (ENE) 1,655 4.9 -26.3°
Sets 00:43:22 0° 86° (E) 2,533 5.6 -26.2°
